STARLINK-4594 (53638 NORAD) Tracking and Keplerian Element Data

This shows tracking and keplerian element data for the satellite.

Feedback or suggestion? Click here.




ElementValue
Catalog53638
NameSTARLINK-4594
Epoch Orbit130
Epoch Day324.91667824
Epoch Year2022
RAAN232.6318
Inclination53.2177
Eccentricity0.0001225
Argument of Perigee67.7892
Mean Anonmoly314.7228
Mean Motion15.23878361
Decay Rate-0.01150999
L11 53638U 22104BC 22324.91667824 -.01150999 00000+0 -51032-1 0 9997
L22 53638 53.2177 232.6318 0001225 67.7892 314.7228 15.23878361 1301



Live tracking and technical data element details for STARLINK-4594 (NORAD 53638). STARLINK-4594 can be tracked NOW for your location showing map with azimuth and elevation plus other details from your city location.







IsCatalogInMostPopularTable: catalog: 53638, numindb: 2
Update: records affected: 1



GetName: 53638 STARLINK-4594

Hit Count: updated at: Tue, 29 Nov 2022 02:15:21 GMT